Flag for Netherlands Weather past 2 weeks in Tilburg, Netherlands

Now
46 °F

Partly sunny.


Feels Like: 39 °F
Forecast: 35 / 52 °F
Wind: 17 mph from Northwest

Location: Gilze-Rijen

Current Time: Mar 27, 2015 at 11:23:03 AM

Latest Report: Mar 27, 2015 at 10:55 AM


Visibility: N/A

Pressure: 30.04 "Hg

Humidity: 71%

Dew point: 37 °F

Location of TilburgLocation

Historic Weather in Tilburg — Graph

°F

Tilburg temperature yesterday

Maximum temperature yesterday: 45 °F (at 12:25 PM)
Minimum temperature yesterday: 34 °F (at 4:55 AM)
Average temperature yesterday: 40 °F

Past Weeks' High & Low Weather Summary

 TemperatureHumidityPressure
High64 °F (Mar 17, 3:25 PM)100% (Mar 16, 5:25 AM)30.45 "Hg (Mar 16, 5:25 AM)
Low25 °F (Mar 23, 5:00 AM)41% (Mar 12, 12:55 PM)29.65 "Hg (Mar 26, 3:55 PM)
Average42 °F83%30.14 "Hg
* Reported Mar 12 9:25 AM — Mar 27 9:55 AM, Tilburg, Weather by CustomWeather, © 2015

Note: Actual official high and low records may vary slightly from our data, if they occured in-between our weather recording intervals... More about our weather records

Advertising

Tilburg weather history for previous 24 hours

 ConditionsComfort  
Time TempWeatherWind HumidityBarometerVisibility
9:55 AM
Fri, Mar 27
45 °FMostly cloudy.18 mph76%30.01 "HgN/A
9:25 AM45 °FCloudy.16 mph81%30.01 "HgN/A
8:55 AM45 °FPartly sunny.12 mph76%29.98 "HgN/A
8:25 AM45 °FScattered clouds.13 mph76%29.98 "HgN/A
7:55 AM43 °FMore clouds than sun.8 mph81%29.98 "HgN/A
7:25 AM43 °FMostly cloudy.9 mph81%29.95 "HgN/A
6:55 AM43 °FOvercast.13 mph81%29.95 "HgN/A
6:25 AM43 °FMostly cloudy.12 mph81%29.92 "HgN/A
5:55 AM43 °FMostly cloudy.13 mph81%29.89 "HgN/A
5:25 AM43 °FMostly cloudy.10 mph81%29.89 "HgN/A
4:55 AM43 °FMostly cloudy.10 mph81%29.89 "HgN/A
3:55 AM43 °FMostly cloudy.12 mph81%29.86 "HgN/A
3:25 AM43 °FMostly cloudy.9 mph76%29.86 "HgN/A
2:55 AM43 °FPartly cloudy.10 mph76%29.83 "HgN/A
2:25 AM43 °FMostly cloudy.9 mph81%29.83 "HgN/A
1:55 AM45 °FOvercast.12 mph76%29.83 "HgN/A
1:25 AM45 °FMostly cloudy.10 mph76%29.83 "HgN/A
12:55 AM43 °FPartly cloudy.7 mph81%29.80 "HgN/A
12:25 AM45 °FPartly cloudy.9 mph76%29.80 "HgN/A
11:55 PM
Thu, Mar 26
45 °FPartly cloudy.8 mph76%29.77 "HgN/A
11:25 PM45 °FPartly cloudy.8 mph81%29.77 "HgN/A
10:55 PM45 °FPartly cloudy.8 mph81%29.77 "HgN/A
10:25 PM45 °FPartly cloudy.7 mph87%29.74 "HgN/A
9:55 PM43 °FFog.7 mph100%29.74 "Hg6 mi
9:25 PM43 °FFog.6 mph100%29.74 "Hg4 mi
8:55 PM45 °FFog.6 mph93%29.71 "Hg3 mi
8:25 PM45 °FFog.7 mph93%29.71 "Hg3 mi
8:00 PM43 °FPartly cloudy.7 mph100%29.71 "Hg2 mi
7:55 PM43 °FFog.7 mph100%29.68 "Hg2 mi
7:25 PM43 °FLight rain. Mostly cloudy.8 mph100%29.68 "Hg4 mi
6:55 PM43 °FFog.8 mph93%29.68 "Hg4 mi
6:25 PM41 °FDrizzle. More clouds than sun.8 mph100%29.65 "Hg2 mi
5:55 PM41 °FDrizzle. Broken clouds.15 mph100%29.65 "Hg2 mi
5:25 PM41 °FDrizzle. Broken clouds.15 mph93%29.65 "Hg3 mi
4:55 PM41 °FDrizzle. Broken clouds.13 mph93%29.65 "Hg3 mi
4:25 PM41 °FDrizzle. Broken clouds.15 mph93%29.65 "Hg3 mi
4:02 PM41 °FDrizzle. Broken clouds.16 mph93%29.65 "Hg4 mi
3:55 PM41 °FLight rain. Mostly cloudy.17 mph93%29.65 "Hg4 mi
3:25 PM41 °FLight rain. Cloudy.15 mph93%29.68 "Hg4 mi
2:55 PM41 °FLight rain. Cloudy.15 mph93%29.68 "Hg4 mi
2:25 PM43 °FLight rain. Partly sunny.17 mph87%29.68 "Hg4 mi
1:55 PM43 °FLight rain. Broken clouds.20 mph76%29.68 "HgN/A
1:25 PM45 °FBroken clouds.18 mph71%29.68 "HgN/A
12:55 PM45 °FBroken clouds.14 mph71%29.68 "HgN/A
12:25 PM45 °FBroken clouds.16 mph71%29.71 "HgN/A
11:55 AM43 °FBroken clouds.16 mph81%29.71 "HgN/A
11:25 AM43 °FPartly sunny.14 mph81%29.74 "HgN/A
Weather by CustomWeather, © 2015

See weather overviewHow to use our weather pages